Precipitable_Water
0.72 0.68 0.64 0.58 0.49 0.44 0.45 0.46 0.47 0.48 0.48 0.47 0.46 0.45 0.44 0.44 0.43 0.43 0.44 0.44 0.45 0.45 0.44 0.47 0.50 0.51 0.51 0.52 0.51 0.49 0.48 0.49 0.49 0.49 0.49 0.49 0.49 0.48 0.46 0.41 0.38 0.36 0.37 0.37 0.36 0.34 0.33 0.31 0.28 0.27 0.25 0.24
0.64 0.61 0.54 0.47 0.45 0.47 0.50 0.51 0.51 0.50 0.48 0.47 0.45 0.43 0.42 0.41 0.41 0.40 0.40 0.41 0.41 0.42 0.41 0.41 0.45 0.48 0.48 0.49 0.47 0.45 0.45 0.46 0.46 0.46 0.46 0.46 0.45 0.43 0.40 0.37 0.36 0.36 0.37 0.37 0.36 0.35 0.34 0.31 0.29 0.27 0.26 0.25
0.61 0.55 0.49 0.47 0.50 0.52 0.52 0.51 0.50 0.47 0.46 0.45 0.44 0.42 0.41 0.40 0.39 0.38 0.37 0.37 0.38 0.39 0.39 0.39 0.40 0.43 0.45 0.45 0.43 0.41 0.40 0.42 0.43 0.43 0.43 0.42 0.41 0.38 0.36 0.34 0.34 0.34 0.36 0.36 0.36 0.35 0.34 0.32 0.29 0.28 0.27 0.26
0.53 0.50 0.49 0.51 0.52 0.51 0.50 0.48 0.47 0.47 0.46 0.45 0.43 0.42 0.41 0.40 0.38 0.37 0.36 0.35 0.35 0.35 0.36 0.36 0.37 0.39 0.41 0.42 0.41 0.38 0.37 0.38 0.40 0.40 0.40 0.40 0.38 0.37 0.34 0.33 0.32 0.32 0.33 0.34 0.35 0.34 0.33 0.31 0.30 0.29 0.28 0.28
0.49 0.48 0.50 0.51 0.51 0.50 0.50 0.49 0.48 0.47 0.46 0.45 0.45 0.43 0.42 0.40 0.39 0.39 0.37 0.36 0.35 0.35 0.35 0.36 0.36 0.36 0.36 0.38 0.37 0.35 0.35 0.35 0.37 0.37 0.37 0.37 0.36 0.35 0.33 0.31 0.30 0.30 0.31 0.32 0.32 0.32 0.32 0.31 0.30 0.30 0.29 0.29
0.52 0.52 0.51 0.50 0.50 0.50 0.50 0.49 0.48 0.47 0.46 0.45 0.44 0.44 0.42 0.41 0.41 0.40 0.40 0.39 0.38 0.37 0.37 0.36 0.36 0.35 0.35 0.35 0.35 0.33 0.33 0.33 0.35 0.34 0.35 0.35 0.34 0.33 0.31 0.30 0.29 0.29 0.29 0.30 0.31 0.30 0.30 0.29 0.30 0.30 0.30 0.29
0.52 0.50 0.50 0.49 0.49 0.48 0.48 0.48 0.47 0.46 0.46 0.45 0.44 0.43 0.42 0.41 0.40 0.40 0.40 0.40 0.39 0.38 0.38 0.38 0.38 0.37 0.36 0.35 0.35 0.33 0.33 0.33 0.34 0.33 0.33 0.33 0.32 0.31 0.30 0.29 0.29 0.29 0.29 0.29 0.29 0.29 0.29 0.29 0.29 0.29 0.30 0.30
0.50 0.49 0.48 0.47 0.47 0.46 0.45 0.44 0.44 0.43 0.43 0.42 0.41 0.40 0.40 0.39 0.39 0.38 0.38 0.38 0.38 0.37 0.37 0.37 0.37 0.36 0.36 0.36 0.36 0.35 0.34 0.34 0.34 0.33 0.32 0.32 0.32 0.31 0.30 0.29 0.29 0.28 0.28 0.28 0.28 0.28 0.28 0.29 0.29 0.28 0.28 0.28
0.46 0.45 0.43 0.43 0.42 0.41 0.41 0.40 0.40 0.39 0.39 0.38 0.37 0.37 0.36 0.36 0.35 0.35 0.35 0.35 0.35 0.35 0.35 0.35 0.35 0.35 0.35 0.36 0.36 0.36 0.36 0.36 0.36 0.35 0.35 0.34 0.34 0.33 0.32 0.31 0.31 0.30 0.29 0.28 0.28 0.27 0.27 0.28 0.28 0.28 0.28 0.27
0.39 0.38 0.36 0.36 0.35 0.34 0.34 0.34 0.33 0.33 0.32 0.32 0.32 0.31 0.31 0.31 0.30 0.30 0.30 0.30 0.30 0.31 0.31 0.32 0.32 0.33 0.34 0.34 0.35 0.36 0.35 0.36 0.36 0.36 0.36 0.36 0.36 0.36 0.35 0.35 0.34 0.33 0.32 0.30 0.29 0.28 0.28 0.28 0.28 0.28 0.28 0.28
0.34 0.33 0.33 0.32 0.31 0.30 0.29 0.29 0.28 0.27 0.27 0.27 0.27 0.27 0.27 0.26 0.25 0.25 0.25 0.26 0.26 0.27 0.27 0.28 0.28 0.29 0.29 0.30 0.31 0.32 0.32 0.33 0.34 0.34 0.34 0.35 0.35 0.36 0.36 0.36 0.36 0.36 0.36 0.34 0.33 0.32 0.30 0.30 0.29 0.28 0.28 0.29
0.30 0.29 0.29 0.29 0.28 0.27 0.27 0.26 0.25 0.24 0.24 0.24 0.23 0.23 0.23 0.22 0.22 0.22 0.22 0.22 0.22 0.23 0.24 0.24 0.25 0.25 0.26 0.26 0.27 0.27 0.27 0.27 0.28 0.29 0.30 0.30 0.32 0.33 0.33 0.34 0.35 0.36 0.36 0.36 0.37 0.36 0.34 0.33 0.32 0.30 0.30 0.29
0.27 0.26 0.26 0.26 0.25 0.25 0.25 0.23 0.23 0.22 0.22 0.21 0.21 0.21 0.21 0.21 0.20 0.20 0.21 0.21 0.21 0.22 0.22 0.22 0.22 0.22 0.22 0.22 0.23 0.23 0.23 0.24 0.24 0.24 0.25 0.25 0.26 0.27 0.27 0.29 0.30 0.32 0.33 0.34 0.35 0.35 0.36 0.36 0.35 0.34 0.32 0.31
0.24 0.24 0.24 0.23 0.23 0.23 0.22 0.21 0.21 0.21 0.20 0.20 0.20 0.20 0.20 0.21 0.20 0.20 0.20 0.20 0.20 0.20 0.20 0.20 0.20 0.20 0.20 0.20 0.20 0.20 0.19 0.20 0.20 0.20 0.20 0.21 0.22 0.22 0.23 0.24 0.24 0.26 0.27 0.29 0.31 0.32 0.34 0.34 0.35 0.36 0.36 0.35
0.23 0.23 0.22 0.22 0.22 0.21 0.20 0.20 0.20 0.20 0.20 0.20 0.20 0.21 0.20 0.20 0.20 0.19 0.19 0.18 0.18 0.18 0.18 0.18 0.18 0.17 0.17 0.17 0.17 0.17 0.17 0.17 0.17 0.16 0.16 0.17 0.17 0.17 0.18 0.18 0.19 0.20 0.21 0.23 0.24 0.26 0.28 0.30 0.32 0.33 0.34 0.35
0.22 0.22 0.21 0.21 0.20 0.20 0.20 0.20 0.20 0.20 0.20 0.20 0.20 0.20 0.19 0.18 0.18 0.17 0.17 0.16 0.16 0.16 0.15 0.15 0.15 0.14 0.14 0.13 0.13 0.13 0.13 0.12 0.13 0.12 0.13 0.13 0.13 0.13 0.14 0.14 0.14 0.15 0.16 0.17 0.18 0.20 0.21 0.23 0.25 0.28 0.30 0.32
0.21 0.21 0.21 0.20 0.20 0.20 0.20 0.20 0.20 0.20 0.20 0.19 0.18 0.17 0.16 0.15 0.15 0.14 0.14 0.14 0.14 0.14 0.14 0.13 0.12 0.12 0.11 0.11 0.11 0.11 0.11 0.10 0.10 0.10 0.10 0.10 0.11 0.11 0.11 0.10 0.10 0.11 0.12 0.12 0.13 0.14 0.15 0.17 0.19 0.21 0.23 0.26
0.21 0.21 0.20 0.20 0.21 0.21 0.20 0.20 0.19 0.18 0.17 0.16 0.15 0.14 0.14 0.14 0.14 0.14 0.14 0.14 0.13 0.13 0.12 0.11 0.11 0.10 0.10 0.10 0.10 0.10 0.10 0.09 0.09 0.09 0.09 0.09 0.09 0.09 0.09 0.09 0.09 0.09 0.09 0.09 0.10 0.10 0.11 0.12 0.13 0.15 0.17 0.19
0.20 0.20 0.20 0.20 0.19 0.19 0.18 0.17 0.16 0.15 0.15 0.15 0.15 0.14 0.14 0.14 0.14 0.13 0.12 0.12 0.11 0.11 0.10 0.10 0.10 0.09 0.09 0.10 0.09 0.09 0.09 0.08 0.08 0.08 0.08 0.08 0.08 0.08 0.08 0.08 0.08 0.08 0.08 0.08 0.08 0.09 0.09 0.09 0.10 0.11 0.12 0.13
0.20 0.20 0.19 0.19 0.18 0.17 0.17 0.16 0.15 0.15 0.15 0.15 0.15 0.14 0.14 0.14 0.13 0.11 0.11 0.11 0.11 0.10 0.10 0.09 0.09 0.09 0.09 0.09 0.08 0.08 0.08 0.08 0.07 0.08 0.08 0.07 0.08 0.07 0.07 0.07 0.07 0.07 0.07 0.07 0.08 0.08 0.08 0.08 0.09 0.09 0.09 0.10
0.19 0.18 0.18 0.17 0.16 0.16 0.16 0.16 0.16 0.16 0.16 0.16 0.15 0.14 0.13 0.12 0.11 0.10 0.10 0.10 0.10 0.10 0.09 0.09 0.08 0.08 0.08 0.09 0.08 0.08 0.08 0.07 0.07 0.07 0.07 0.07 0.07 0.07 0.06 0.07 0.06 0.06 0.06 0.07 0.07 0.07 0.07 0.07 0.08 0.08 0.08 0.09
0.18 0.18 0.17 0.17 0.17 0.17 0.17 0.17 0.17 0.17 0.16 0.15 0.14 0.13 0.12 0.12 0.11 0.11 0.10 0.10 0.10 0.10 0.10 0.09 0.09 0.08 0.08 0.09 0.08 0.08 0.07 0.07 0.08 0.08 0.07 0.06 0.07 0.07 0.06 0.06 0.06 0.06 0.06 0.06 0.06 0.06 0.06 0.06 0.07 0.07 0.07 0.08
0.18 0.18 0.17 0.18 0.17 0.17 0.17 0.17 0.18 0.17 0.16 0.15 0.14 0.13 0.12 0.12 0.11 0.11 0.10 0.10 0.10 0.10 0.09 0.09 0.09 0.09 0.09 0.09 0.08 0.08 0.08 0.08 0.08 0.08 0.07 0.06 0.06 0.07 0.07 0.06 0.06 0.06 0.06 0.06 0.06 0.06 0.06 0.06 0.06 0.06 0.07 0.08
0.17 0.18 0.18 0.17 0.17 0.17 0.17 0.17 0.17 0.16 0.15 0.14 0.14 0.13 0.13 0.12 0.11 0.11 0.11 0.10 0.10 0.10 0.10 0.09 0.09 0.09 0.09 0.09 0.08 0.08 0.08 0.08 0.08 0.07 0.07 0.06 0.07 0.07 0.07 0.06 0.06 0.07 0.06 0.06 0.05 0.05 0.06 0.06 0.06 0.06 0.07 0.08
0.18 0.17 0.18 0.18 0.17 0.17 0.17 0.16 0.16 0.15 0.15 0.15 0.14 0.14 0.13 0.12 0.12 0.12 0.11 0.11 0.11 0.10 0.10 0.10 0.09 0.09 0.09 0.09 0.09 0.08 0.08 0.08 0.08 0.08 0.07 0.07 0.07 0.07 0.06 0.06 0.07 0.07 0.06 0.06 0.05 0.06 0.06 0.06 0.06 0.07 0.08 0.10
0.19 0.19 0.19 0.18 0.18 0.18 0.17 0.16 0.16 0.15 0.15 0.15 0.14 0.14 0.14 0.13 0.13 0.12 0.12 0.11 0.11 0.11 0.10 0.10 0.10 0.09 0.09 0.09 0.09 0.09 0.09 0.08 0.08 0.08 0.07 0.07 0.07 0.07 0.06 0.06 0.07 0.07 0.06 0.05 0.05 0.05 0.05 0.05 0.06 0.09 0.09 0.08
0.19 0.20 0.20 0.20 0.19 0.18 0.17 0.17 0.17 0.17 0.17 0.16 0.15 0.15 0.15 0.14 0.14 0.13 0.12 0.12 0.12 0.11 0.11 0.10 0.10 0.10 0.09 0.09 0.09 0.09 0.09 0.08 0.08 0.08 0.07 0.07 0.07 0.06 0.06 0.07 0.07 0.07 0.07 0.05 0.06 0.06 0.05 0.05 0.04 0.05 0.06 0.07
0.21 0.20 0.21 0.20 0.19 0.19 0.18 0.18 0.18 0.18 0.18 0.17 0.16 0.15 0.16 0.16 0.15 0.14 0.13 0.12 0.12 0.12 0.11 0.10 0.10 0.10 0.10 0.09 0.09 0.09 0.09 0.08 0.08 0.08 0.07 0.07 0.07 0.07 0.06 0.06 0.06 0.07 0.07 0.06 0.06 0.05 0.05 0.05 0.05 0.04 0.05 0.06
0.21 0.21 0.21 0.20 0.20 0.20 0.19 0.19 0.19 0.18 0.18 0.17 0.17 0.17 0.17 0.16 0.16 0.15 0.14 0.14 0.13 0.13 0.12 0.11 0.11 0.10 0.10 0.10 0.09 0.10 0.09 0.08 0.08 0.08 0.08 0.08 0.07 0.07 0.06 0.06 0.06 0.06 0.07 0.07 0.07 0.06 0.05 0.05 0.05 0.05 0.05 0.05
0.22 0.21 0.21 0.20 0.18 0.18 0.18 0.18 0.18 0.18 0.18 0.18 0.18 0.18 0.17 0.17 0.17 0.16 0.16 0.15 0.14 0.14 0.13 0.12 0.11 0.11 0.10 0.10 0.09 0.10 0.09 0.09 0.08 0.08 0.08 0.08 0.07 0.07 0.07 0.07 0.06 0.06 0.07 0.07 0.07 0.07 0.07 0.06 0.05 0.05 0.06 0.05
0.23 0.22 0.22 0.20 0.19 0.19 0.19 0.19 0.19 0.20 0.20 0.19 0.19 0.19 0.19 0.18 0.18 0.18 0.17 0.16 0.15 0.14 0.14 0.13 0.12 0.11 0.11 0.10 0.10 0.10 0.10 0.09 0.08 0.08 0.08 0.08 0.07 0.07 0.07 0.07 0.06 0.06 0.06 0.07 0.06 0.07 0.07 0.06 0.06 0.07 0.06 0.05
Wind_Speed
19 20 21 21 21 22 22 22 22 23 23 23 24 24 24 25 25 25 26 26 26 26 26 26 27 27 27 27 27 27 28 28 28 28 28 28 28 28 29 29 29 29 29 29 29 29 30 30 30 29 29 29
21 22 22 22 23 23 23 23 24 24 24 25 25 25 26 26 26 27 27 27 27 27 28 28 28 28 28 28 29 29 29 29 29 29 29 29 29 29 30 30 30 31 31 31 31 31 31 31 31 31 31 31
23 23 23 23 24 24 24 25 25 25 26 26 26 27 27 27 27 28 28 28 28 29 29 29 30 30 30 30 30 30 30 30 30 30 30 30 30 31 31 31 32 32 32 32 32 33 33 33 33 33 33 32
24 24 24 24 25 25 25 26 26 26 27 27 28 28 28 28 28 29 29 29 30 30 30 30 31 31 31 32 32 32 32 32 32 32 32 32 32 32 32 32 33 33 33 33 34 34 34 34 34 34 34 34
25 25 25 25 25 26 26 27 27 27 28 28 29 29 29 30 30 31 31 31 31 32 32 32 32 33 33 33 33 33 33 33 34 34 34 34 34 34 34 34 34 34 34 35 35 35 35 36 36 36 36 36
25 25 25 26 26 27 27 28 28 29 29 29 30 30 31 31 32 32 33 33 33 34 34 34 34 34 34 35 35 35 35 35 35 35 35 36 36 36 36 36 36 36 36 36 36 36 36 37 37 37 38 38
26 26 26 27 27 28 28 29 29 30 30 31 31 31 32 33 33 33 34 34 35 35 35 35 36 36 36 36 36 37 37 37 37 37 37 37 37 37 37 37 38 38 38 38 38 38 38 38 38 39 39 39
27 27 27 28 28 29 29 30 30 31 31 32 32 32 33 34 34 34 35 35 36 36 36 37 37 37 38 38 38 38 38 39 39 39 39 39 39 39 39 39 40 40 40 40 40 40 40 40 40 40 40 40
27 28 28 28 29 29 30 30 31 31 32 32 33 33 34 35 35 35 36 36 37 37 38 38 38 39 39 39 40 40 40 40 41 41 41 41 41 41 41 41 41 42 42 42 42 42 42 42 42 42 42 42
28 28 28 29 29 30 30 31 31 32 32 33 33 34 35 35 36 36 37 37 37 38 38 39 39 40 40 40 41 41 41 42 42 42 43 43 43 43 43 43 43 43 44 44 44 44 44 44 44 44 44 43
28 28 29 29 30 30 31 31 32 32 33 33 34 34 35 36 36 37 37 38 38 38 39 39 40 40 41 41 42 42 43 43 43 44 44 44 44 45 45 45 45 45 45 46 46 46 46 46 46 46 46 46
28 28 29 30 30 31 31 31 32 33 33 34 34 35 35 36 36 37 38 38 39 39 40 40 41 41 42 42 43 43 44 44 45 45 45 46 46 46 47 47 47 47 47 48 48 48 48 48 48 48 48 48
28 28 29 29 30 30 31 31 32 32 33 33 34 34 35 35 36 37 37 38 39 40 40 41 42 42 43 43 44 44 45 45 46 46 47 47 47 48 48 48 49 49 49 49 49 50 50 50 50 50 50 50
28 28 29 29 30 30 30 31 31 32 32 33 33 34 34 35 36 36 37 38 39 39 40 41 42 42 43 43 44 45 45 46 46 47 48 48 48 49 49 49 50 50 50 51 51 51 51 51 52 52 52 52
27 28 28 29 29 30 30 31 31 31 32 33 33 34 34 35 36 37 37 38 39 39 40 41 41 42 43 43 44 45 45 46 46 47 48 48 49 49 50 50 51 51 51 52 52 52 53 53 53 53 54 54
27 28 28 28 29 29 30 30 31 31 32 33 33 34 35 35 36 37 37 38 39 39 40 41 41 42 42 43 44 44 45 45 46 47 47 48 48 49 49 50 51 51 52 52 53 53 54 54 54 55 55 55
26 27 27 28 29 29 29 30 30 31 32 33 33 34 35 35 36 37 37 38 39 39 40 40 41 41 42 42 43 43 44 45 45 46 46 47 48 48 49 49 50 51 51 52 53 54 54 55 55 56 56 56
26 27 27 28 28 29 29 30 31 31 32 32 33 34 34 35 36 37 37 38 38 39 39 40 40 41 41 42 42 43 43 44 44 45 46 46 47 47 48 49 49 50 51 51 52 53 54 55 56 56 57 57
27 27 27 28 28 29 29 30 31 31 32 32 33 34 35 35 36 36 37 37 38 38 39 39 39 40 40 41 42 42 43 43 44 44 45 46 46 47 47 48 49 49 50 51 52 52 53 54 55 56 57 58
27 28 28 29 29 30 30 30 31 32 32 33 34 34 35 35 36 36 36 37 37 37 38 38 39 39 40 40 41 42 42 43 43 44 44 45 45 46 47 47 48 49 50 50 51 52 53 54 55 55 56 57
28 28 29 30 30 30 31 32 32 33 33 34 34 35 35 36 36 36 36 37 37 37 38 38 39 39 40 40 41 41 42 42 43 43 44 44 45 46 46 47 48 48 49 50 51 52 53 53 54 55 56 57
29 29 30 30 31 31 32 33 33 34 34 34 35 35 35 36 36 37 37 37 38 38 38 39 39 40 40 40 41 41 42 42 43 43 44 44 45 45 46 47 47 48 49 50 51 51 52 53 54 55 55 56
30 30 31 31 32 33 33 34 34 34 35 35 35 35 36 36 37 37 37 38 38 39 39 40 40 40 41 41 42 42 42 43 43 43 44 45 45 45 46 47 47 48 49 50 50 51 51 52 53 54 54 55
31 32 32 33 33 34 35 35 35 35 35 35 36 36 36 37 37 38 38 38 39 39 40 40 41 41 42 42 42 43 43 44 44 44 45 45 46 46 46 47 47 48 49 50 50 51 51 52 52 53 53 53
33 33 34 34 35 35 36 36 36 36 36 36 36 37 37 37 38 38 39 39 39 40 40 41 41 42 42 43 43 44 44 44 45 45 46 46 46 46 47 47 48 49 50 50 50 51 51 51 51 51 51 51
34 34 35 35 36 36 36 36 36 37 37 37 37 37 38 38 38 39 39 40 40 41 41 41 42 42 43 43 44 44 45 45 45 46 46 46 47 47 47 48 48 49 49 50 50 51 51 50 50 50 50 51
35 35 36 36 37 37 37 37 37 37 38 38 38 38 38 39 39 40 40 41 41 41 42 42 43 43 43 44 44 45 45 45 46 46 47 47 47 47 48 48 48 49 49 50 51 51 51 51 51 51 50 51
35 36 36 37 37 37 37 38 38 38 38 39 39 39 39 40 40 40 41 41 42 42 42 43 43 44 44 45 45 45 46 46 46 47 47 47 48 48 48 49 49 50 50 50 51 51 51 52 52 51 51 51
36 36 37 37 37 37 38 38 39 39 39 39 40 40 40 40 41 41 41 42 42 43 43 43 44 44 45 45 46 46 46 47 47 47 47 48 48 49 49 49 50 50 51 51 51 51 52 52 51 52 53 54
36 37 38 38 38 38 38 39 39 40 40 40 40 41 41 41 41 41 42 42 43 43 43 44 44 45 45 46 46 47 47 47 47 48 48 48 49 49 50 50 51 51 51 51 52 52 52 53 53 54 55 55
37 38 38 39 39 39 39 40 40 40 40 40 41 41 41 42 42 42 42 43 43 43 44 45 45 45 46 46 47 47 47 47 48 48 48 49 49 50 50 51 51 52 52 52 53 53 53 54 55 56 56 56
Wind_Direction
277 278 280 281 281 281 282 282 283 283 284 283 283 282 282 282 282 282 282 283 283 282 282 282 282 282 282 282 282 282 282 282 281 281 280 279 279 279 278 277 277 276 275 274 273 273 272 272 271 270 270 269
278 279 280 281 280 280 281 281 282 283 284 284 284 283 283 282 282 282 282 282 282 282 282 282 282 282 282 281 281 281 281 281 281 280 280 279 279 278 278 278 277 276 276 275 274 273 273 272 271 271 270 269
279 280 280 280 280 280 281 282 282 283 284 284 284 284 283 283 283 283 283 283 283 282 282 282 282 281 281 281 281 281 280 280 280 279 279 278 278 277 277 277 277 276 276 275 274 274 273 272 272 271 271 269
279 280 280 280 280 281 281 282 283 283 284 284 284 284 284 284 283 283 283 283 283 283 283 282 282 282 282 282 281 281 280 280 279 279 278 278 278 277 277 276 276 276 275 275 274 274 273 273 272 272 271 270
280 280 280 281 282 282 283 283 283 283 284 284 284 284 284 284 283 283 283 283 282 282 282 282 283 282 282 282 282 281 281 280 280 279 279 278 278 277 277 276 276 276 275 274 274 273 273 273 272 271 271 270
281 281 282 283 283 283 283 283 283 283 284 284 284 284 284 283 283 283 282 282 282 282 282 282 282 282 282 282 282 282 281 281 280 280 279 279 278 277 277 277 276 276 275 275 274 273 273 273 272 271 271 269
281 282 283 283 283 283 283 283 284 284 284 284 284 284 283 283 283 283 283 282 282 282 282 282 282 282 282 281 281 281 281 281 280 280 279 279 278 278 277 277 276 275 275 275 274 274 273 272 271 271 270 269
282 282 283 283 283 283 283 284 284 284 284 284 284 284 284 283 283 283 283 283 283 282 282 282 282 282 282 281 281 281 281 280 280 280 279 279 278 278 277 277 276 275 274 274 274 274 273 272 272 271 270 269
282 282 283 283 283 283 283 284 284 284 284 284 285 284 284 284 284 284 284 284 283 283 283 282 282 282 282 282 281 281 281 280 280 280 279 279 278 278 277 277 276 275 275 274 274 273 273 272 272 271 270 270
282 283 283 283 284 284 284 285 285 285 285 285 285 285 285 285 285 285 284 285 284 284 284 283 283 283 282 282 282 282 281 281 280 280 279 279 278 278 277 277 276 276 275 274 274 273 272 272 271 271 270 270
283 283 284 284 284 285 285 286 286 286 286 287 287 286 286 286 285 285 285 285 284 284 284 284 283 283 283 283 282 282 282 281 281 280 280 279 279 278 277 277 276 276 275 274 274 273 272 272 271 271 270 270
283 284 284 284 285 285 286 286 286 287 287 287 287 287 287 287 286 286 286 285 285 285 284 284 284 284 283 283 283 283 282 282 281 281 280 280 279 279 278 278 277 276 275 275 274 273 273 272 271 271 270 269
284 285 285 286 286 287 287 287 287 288 288 288 288 288 288 288 287 287 287 286 286 285 285 285 285 284 284 284 283 283 283 282 282 281 281 280 280 279 279 278 278 277 276 275 274 274 273 272 272 271 270 269
286 286 287 287 288 288 288 289 289 289 289 289 289 290 289 289 289 288 288 287 287 286 286 285 285 285 284 284 284 283 283 283 282 282 281 281 280 280 279 279 278 277 277 276 275 275 274 273 272 271 270 270
287 288 288 289 289 289 290 290 290 290 290 291 291 291 291 291 290 289 289 288 288 287 286 286 285 285 285 284 284 284 283 283 283 282 282 281 281 280 280 279 279 278 277 276 276 275 274 274 272 271 270 270
288 289 289 290 290 290 291 291 291 291 291 291 292 292 292 292 291 290 290 289 289 288 288 287 287 286 286 285 285 285 284 284 283 283 282 282 281 281 280 280 279 278 278 277 276 275 274 274 273 272 271 270
290 290 291 291 292 292 292 292 292 292 292 292 293 293 292 292 292 291 291 290 290 289 289 288 288 288 287 287 287 286 286 285 284 284 283 283 282 282 281 280 280 279 278 278 277 276 275 274 273 272 271 270
291 292 292 292 293 293 293 294 294 294 294 294 294 294 294 293 293 293 292 292 291 290 290 289 289 289 288 288 288 287 287 286 286 285 285 284 284 283 282 282 281 280 279 279 278 277 276 275 274 273 272 271
292 292 293 293 294 294 294 294 295 295 294 295 295 295 295 294 294 294 294 293 292 292 291 291 290 290 290 289 289 289 288 288 287 287 286 286 285 284 284 283 282 282 281 280 280 279 278 277 276 274 273 271
292 292 293 294 294 294 295 295 295 295 295 296 296 296 296 296 295 295 295 294 294 293 292 292 291 291 291 290 290 290 289 289 288 288 287 287 286 286 285 284 284 283 282 282 281 280 280 278 277 276 274 273
292 293 293 294 294 295 295 295 296 296 296 297 297 297 297 296 296 296 296 295 295 294 294 293 293 292 292 292 291 291 290 290 290 289 289 288 288 287 286 285 285 284 284 283 282 281 281 280 279 277 276 274
292 293 293 293 294 295 295 296 296 296 296 297 297 297 297 297 296 296 296 296 295 295 295 294 294 294 293 293 293 292 292 291 291 290 290 289 289 288 287 286 286 285 285 284 283 283 282 281 280 278 277 275
292 292 293 293 294 295 295 296 296 296 296 296 297 297 297 297 297 297 297 296 296 295 295 295 294 294 294 293 293 293 292 292 292 291 291 290 290 289 289 288 287 287 286 286 285 284 283 282 281 279 277 276
292 292 293 293 294 295 295 296 296 296 296 296 297 297 297 298 297 297 297 297 296 296 295 295 294 294 294 293 293 293 292 292 292 292 291 291 290 290 290 289 289 288 288 287 286 285 285 284 282 280 278 276
292 292 293 294 295 295 296 296 296 296 296 297 297 297 298 298 298 297 297 297 296 296 296 295 295 294 294 294 293 293 292 292 292 291 291 291 290 290 290 290 289 289 289 288 287 287 286 285 283 281 279 277
292 292 293 294 295 295 295 295 295 296 296 297 297 297 298 298 298 298 297 297 297 296 296 296 295 295 295 294 294 293 293 292 292 292 291 291 291 290 290 290 289 290 290 288 288 287 286 286 284 282 280 279
292 293 293 294 295 295 295 295 295 295 296 296 297 297 297 298 298 298 298 297 297 297 296 296 296 295 295 295 294 294 293 293 292 292 292 291 291 290 290 290 290 290 290 288 288 287 286 285 284 283 281 280
291 292 293 294 294 294 294 295 295 295 295 295 296 296 297 297 297 297 297 297 297 297 297 296 296 296 296 295 295 294 293 293 293 292 292 292 291 291 291 290 290 290 290 289 289 287 286 285 284 282 281 281
291 292 293 294 294 293 294 294 294 294 294 295 295 296 296 296 297 297 297 297 297 297 297 297 296 296 296 295 295 294 294 293 293 293 293 292 292 291 291 290 290 290 290 290 289 288 286 285 283 281 282 282
290 291 292 293 293 293 293 293 293 294 294 294 294 295 295 295 296 296 297 297 297 297 297 297 297 296 296 296 295 295 294 294 293 293 293 293 292 292 291 291 290 290 290 290 289 288 287 285 284 283 283 282
290 291 292 292 292 292 292 292 293 293 294 294 294 294 294 295 295 296 296 297 297 297 297 297 297 296 296 296 296 295 294 294 294 293 293 293 292 292 292 291 291 291 290 290 289 288 287 286 285 284 283 281